Regional Weather Roundup
Issued by NWS

Home | Current Version | Previous Version | Graphics & Text | Print | Product List | Glossary On
Versions: 1 2 3 4 5 6 7 8 9 10 11 12 13 14 15 16 17 18 19 20 21 22 23 24 25 26 27 28 29 30 31 32 33 34 35 36 37 38 39 40 41 42 43 44 45 46 47 48 49 50
000
ASUS45 KCYS 050710
RWRWY

WYOMING REGIONAL WEATHER ROUNDUP
NATIONAL WEATHER SERVICE CHEYENNE WY
100 AM MDT SUN JUL 05 2015

NOTE:  "FAIR" INDICATES FEW OR NO CLOUDS BELOW 12,000 FEET
WITH NO SIGNIFICANT WEATHER AND/OR OBSTRUCTIONS TO VISIBILITY.

WYZ001-050800-
YELLOWSTONE NATIONAL PARK

CITY           SKY/WX    TMP DP  RH WIND       PRES   REMARKS
LK YELLOWSTONE   N/A     53  41  63 CALM      30.16F
W YELLOWSTONE  NOT AVBL

$$
WYZ002>013-054>058-071-098>099-050800-
NORTHERN WYOMING

CITY           SKY/WX    TMP DP  RH WIND       PRES   REMARKS
JACKSON        FAIR      57  45  62 N3        30.05S
CODY           FAIR      73  46  38 SW3       29.90S
GREYBULL       FAIR      76  49  38 S7        29.78S
WORLAND        FAIR      74  50  42 S6        29.81F
SHERIDAN       FAIR      64  54  69 CALM      29.79F
BUFFALO        FAIR      71  54  54 SE8       29.90F
GILLETTE       FAIR      73  53  49 S15       29.85S
HULETT         FAIR      72  48  43 CALM      29.87S
NEWCASTLE      FAIR      75  54  46 MISG      29.87F

$$
WYZ014>020-022>026-101>103-050800-
CENTRAL WYOMING

CITY           SKY/WX    TMP DP  RH WIND       PRES   REMARKS
BIG PINEY      FAIR      61  39  44 CALM      30.11R
PINEDALE       FAIR      57  45  62 CALM      30.12R
DUBOIS         FAIR      59  32  36 W12       30.10S
LANDER         FAIR      72  45  37 W8        29.95R
RIVERTON       FAIR      77  43  29 N9G21     29.92S
CASPER         FAIR      74  46  36 S9        29.92F
DOUGLAS        FAIR      65  55  70 VRB5      29.93S

$$
WYZ021-027>030-104>119-050800-
SOUTHERN WYOMING

CITY           SKY/WX    TMP DP  RH WIND       PRES   REMARKS
EVANSTON       FAIR      67  47  48 SW10      30.16S
KEMMERER       FAIR      64  46  52 SW7       30.16S
FORT BRIDGER   SUNNY     68  50  52 W16G23    30.17R
ROCK SPRINGS   MOCLDY    71  44  37 W14       30.10R
DIXON          FAIR      60  47  64 NE5       30.14S
RAWLINS        MOCLDY    63  54  72 CALM      30.12S
SARATOGA       FAIR      63  46  55 S9        30.15S
LARAMIE        LGT RAIN  60  51  72 NW24G35   30.16R
CHEYENNE       FAIR      66  49  54 SW7       30.03F
TORRINGTON     FAIR      69  58  67 CALM      29.87F
PINE BLUFFS    FAIR      63  55  77 W6        29.98S

$$


USA.gov is the U.S. government's official web portal to all federal, state and local government web resources and services.